Location: Unspecified
(45.6669°N, 0.0000°E)
Time: 01:39:21
(UTC+00:00)

ISS - Pass Details

Date: 26 May 2019
Orbit: 407 x 418 km, 51.6° (Epoch: 25 June)

Event Time Altitude Azimuth Distance (km) Brightness Sun altitude
Rises 23:43:29 0° 296° (WNW) 2,365 0.5 -23.1°
Reaches altitude 10° 23:45:37 10° 291° (WNW) 1,500 -0.7 -23.1°
Enters shadow 23:46:32 17° 286° (WNW) 1,148 -1.4 -23.1°
